User: anonymous   Login
Location: ????? ????
(37.9717°N, 23.4051°E)
Time: 01:15:52
(UTC+00:00)
Language:

USA 234 - Orbit

View from above orbital plane
View from above orbital plane
View from above satellite
View from above satellite

Ground track
Ground track

The orbit data is extracted from the following two-line orbital elements,

1 38109U 12014A   24168.92254727 0.00000050  00000-0  89481-4 0    00
2 38109 123.0030   9.6260 0004822 154.7987 205.2013 13.41469429    08
Epoch (UTC): 16 June 2024 22:08:28
Eccentricity: 0.0004822
inclination: 123.0030°
perigee height: 1100 km
apogee height: 1107 km
right ascension of ascending node: 9.6260°
argument of perigee: 154.7987°
revolutions per day: 13.41469429
mean anomaly at epoch: 205.2013°
orbit number at epoch: 0

The dashed part of the orbit path shows where the satellite is in the earth's shadow,  

DLR